TimeEDT,TemperatureF,Dew PointF,Humidity,Sea Level PressureIn,VisibilityMPH,Wind Direction,Wind SpeedMPH,Gust SpeedMPH,PrecipitationIn,Events,Conditions,WindDirDegrees,DateUTC
12:51 AM,37.4,32.0,81,29.73,10.0,WSW,6.9,-,N/A,,Overcast,240,2012-11-02 04:51:00
1:51 AM,37.9,32.0,79,29.77,10.0,West,5.8,-,N/A,,Overcast,260,2012-11-02 05:51:00
2:51 AM,37.9,32.0,79,29.77,10.0,West,4.6,-,N/A,,Overcast,260,2012-11-02 06:51:00
3:51 AM,37.9,32.0,79,29.77,10.0,West,4.6,-,N/A,,Overcast,260,2012-11-02 07:51:00
4:51 AM,37.9,30.9,76,29.77,10.0,West,9.2,-,N/A,,Mostly Cloudy,270,2012-11-02 08:51:00
5:51 AM,36.0,30.0,79,29.78,10.0,West,8.1,-,N/A,,Scattered Clouds,280,2012-11-02 09:51:00
6:51 AM,35.1,30.0,82,29.80,10.0,West,5.8,-,N/A,,Scattered Clouds,260,2012-11-02 10:51:00
7:51 AM,35.1,30.0,82,29.81,10.0,West,5.8,-,N/A,,Mostly Cloudy,260,2012-11-02 11:51:00
8:51 AM,36.0,30.0,79,29.83,10.0,West,4.6,-,N/A,,Mostly Cloudy,270,2012-11-02 12:51:00
9:51 AM,37.9,30.9,76,29.85,10.0,West,5.8,-,N/A,,Mostly Cloudy,270,2012-11-02 13:51:00
10:51 AM,39.9,32.0,73,29.87,10.0,WNW,12.7,-,N/A,,Mostly Cloudy,290,2012-11-02 14:51:00
11:29 AM,39.2,30.2,70,29.83,10.0,NW,16.1,-,N/A,,Mostly Cloudy,310,2012-11-02 15:29:00
11:51 AM,41.0,32.0,70,29.83,10.0,WNW,13.8,21.9,N/A,,Mostly Cloudy,290,2012-11-02 15:51:00
12:51 PM,41.0,30.9,67,29.88,10.0,WNW,19.6,-,N/A,,Overcast,290,2012-11-02 16:51:00
1:51 PM,39.9,30.0,68,29.90,10.0,West,13.8,24.2,N/A,,Overcast,270,2012-11-02 17:51:00
2:32 PM,39.2,30.2,70,29.86,10.0,WNW,19.6,27.6,0.00,,Light Drizzle,290,2012-11-02 18:32:00
2:51 PM,39.0,32.0,76,29.91,10.0,West,11.5,-,0.00,,Overcast,270,2012-11-02 18:51:00
3:51 PM,39.0,32.0,76,29.93,10.0,West,11.5,19.6,N/A,,Overcast,270,2012-11-02 19:51:00
4:25 PM,39.2,33.8,81,29.90,10.0,West,12.7,-,N/A,,Overcast,270,2012-11-02 20:25:00
4:51 PM,37.4,32.0,81,29.90,7.0,West,16.1,-,N/A,Rain,Light Rain,280,2012-11-02 20:51:00
5:51 PM,37.0,33.1,86,29.98,10.0,West,11.5,-,0.00,,Overcast,280,2012-11-02 21:51:00
6:09 PM,35.6,33.8,93,29.93,4.0,West,12.7,19.6,0.00,Rain,Light Rain,270,2012-11-02 22:09:00
6:39 PM,35.6,32.0,87,29.95,10.0,WNW,18.4,25.3,0.01,,Overcast,290,2012-11-02 22:39:00
6:51 PM,36.0,32.0,86,30.00,10.0,WNW,16.1,-,0.01,,Overcast,300,2012-11-02 22:51:00
7:51 PM,37.0,30.9,79,30.01,10.0,WNW,11.5,-,N/A,,Overcast,290,2012-11-02 23:51:00
8:51 PM,37.0,30.0,76,30.02,10.0,West,10.4,-,0.00,,Light Drizzle,270,2012-11-03 00:51:00
9:51 PM,37.0,30.0,76,30.03,10.0,West,12.7,-,0.00,,Overcast,280,2012-11-03 01:51:00
10:51 PM,36.0,30.9,82,30.04,10.0,WNW,10.4,-,N/A,,Overcast,300,2012-11-03 02:51:00
11:51 PM,36.0,30.0,79,30.04,10.0,WNW,9.2,-,N/A,,Overcast,290,2012-11-03 03:51:00